******** Week 149 almanac for PRN-1 ******** ID: 1 Health: 0 Eccentricity: 0.01137828827 Time of Applicability(s): 61440 Orbital Inclination(rad): 0.9866576412 Rate of Right Ascen(r/s): -7.988904198e-09 SQRT(A) (m 1/2): 5153.62207 Right Ascen at Week(rad): -1.90981507 Argument of Perigee(rad): 0.8815434806 Mean Anom(rad): -2.688320057 Af0(s): 0.0003414144653 Af1(s/s): -1.091394e-11 week: 149 ******** Week 149 almanac for PRN-2 ******** ID: 2 Health: 0 Eccentricity: 0.02067995071 Time of Applicability(s): 61440 Orbital Inclination(rad): 0.9650081389 Rate of Right Ascen(r/s): -8.114623721e-09 SQRT(A) (m 1/2): 5153.640137 Right Ascen at Week(rad): -1.999075075 Argument of Perigee(rad): -1.443166954 Mean Anom(rad): -2.542340963 Af0(s): -0.0005140058838 Af1(s/s): 0 week: 149 ******** Week 149 almanac for PRN-3 ******** ID: 3 Health: 0 Eccentricity: 0.003891468048 Time of Applicability(s): 61440 Orbital Inclination(rad): 0.9725701848 Rate of Right Ascen(r/s): -7.783181343e-09 SQRT(A) (m 1/2): 5153.638672 Right Ascen at Week(rad): -0.8742799168 Argument of Perigee(rad): 0.9584099247 Mean Anom(rad): 2.440462318 Af0(s): -9.496296387e-05 Af1(s/s): -1.818989e-11 week: 149 ******** Week 149 almanac for PRN-4 ******** ID: 4 Health: 0 Eccentricity: 0.001695632935 Time of Applicability(s): 61440 Orbital Inclination(rad): 0.9615207295 Rate of Right Ascen(r/s): -7.623174678e-09 SQRT(A) (m 1/2): 5153.605469 Right Ascen at Week(rad): 0.2066698311 Argument of Perigee(rad): -3.064076441 Mean Anom(rad): -0.9040251375 Af0(s): -0.000149981189 Af1(s/s): 3.637979e-12 week: 149 ******** Week 149 almanac for PRN-5 ******** ID: 5 Health: 0 Eccentricity: 0.005878448486 Time of Applicability(s): 61440 Orbital Inclination(rad): 0.9595433323 Rate of Right Ascen(r/s): -7.931758961e-09 SQRT(A) (m 1/2): 5153.620117 Right Ascen at Week(rad): -0.9146585156 Argument of Perigee(rad): 1.008377401 Mean Anom(rad): -0.03446363479 Af0(s): -5.652557373e-05 Af1(s/s): 0 week: 149 ******** Week 149 almanac for PRN-6 ******** ID: 6 Health: 0 Eccentricity: 0.002694606781 Time of Applicability(s): 61440 Orbital Inclination(rad): 0.9860344615 Rate of Right Ascen(r/s): -7.988904198e-09 SQRT(A) (m 1/2): 5153.620605 Right Ascen at Week(rad): -1.918087556 Argument of Perigee(rad): -0.9607423544 Mean Anom(rad): -2.357816856 Af0(s): 0.0001582716064 Af1(s/s): 1.091394e-11 week: 149 ******** Week 149 almanac for PRN-7 ******** ID: 7 Health: 0 Eccentricity: 0.01553916931 Time of Applicability(s): 61440 Orbital Inclination(rad): 0.9506390532 Rate of Right Ascen(r/s): -8.023191341e-09 SQRT(A) (m 1/2): 5153.627441 Right Ascen at Week(rad): 1.225547286 Argument of Perigee(rad): -2.291259841 Mean Anom(rad): 2.925228709 Af0(s): 0.0002449441528 Af1(s/s): 3.637979e-12 week: 149 ******** Week 149 almanac for PRN-8 ******** ID: 8 Health: 0 Eccentricity: 0.007285118103 Time of Applicability(s): 61440 Orbital Inclination(rad): 0.9650860364 Rate of Right Ascen(r/s): -7.737465153e-09 SQRT(A) (m 1/2): 5153.676758 Right Ascen at Week(rad): -2.98945629 Argument of Perigee(rad): 0.1029066668 Mean Anom(rad): -0.4223008664 Af0(s): -4.446678467e-05 Af1(s/s): 0 week: 149 ******** Week 149 almanac for PRN-9 ******** ID: 9 Health: 0 Eccentricity: 0.002258777618 Time of Applicability(s): 61440 Orbital Inclination(rad): 0.9545279342 Rate of Right Ascen(r/s): -7.703178011e-09 SQRT(A) (m 1/2): 5153.57373 Right Ascen at Week(rad): 0.1537493664 Argument of Perigee(rad): 1.869493396 Mean Anom(rad): -0.05984285258 Af0(s): -0.0002803668457 Af1(s/s): 0 week: 149 ******** Week 149 almanac for PRN-10 ******** ID: 10 Health: 0 Eccentricity: 0.007500171661 Time of Applicability(s): 61440 Orbital Inclination(rad): 0.9723964136 Rate of Right Ascen(r/s): -7.748894201e-09 SQRT(A) (m 1/2): 5153.637207 Right Ascen at Week(rad): -0.8770684961 Argument of Perigee(rad): -2.515047265 Mean Anom(rad): 1.563025307 Af0(s): -0.000252480896 Af1(s/s): -1.091394e-11 week: 149 ******** Week 149 almanac for PRN-11 ******** ID: 11 Health: 255 Eccentricity: 0.0002684593201 Time of Applicability(s): 61440 Orbital Inclination(rad): 0.9617544218 Rate of Right Ascen(r/s): -8.228914196e-09 SQRT(A) (m 1/2): 5153.717773 Right Ascen at Week(rad): -1.865986138 Argument of Perigee(rad): 2.872871503 Mean Anom(rad): -0.5711179753 Af0(s): -7.159906006e-05 Af1(s/s): 1.091394e-11 week: 149 ******** Week 149 almanac for PRN-12 ******** ID: 12 Health: 0 Eccentricity: 0.008683204651 Time of Applicability(s): 61440 Orbital Inclination(rad): 0.97028719 Rate of Right Ascen(r/s): -7.623174678e-09 SQRT(A) (m 1/2): 5153.554688 Right Ascen at Week(rad): 2.338567194 Argument of Perigee(rad): 1.246681092 Mean Anom(rad): 2.271851014 Af0(s): -0.0001349077026 Af1(s/s): -7.275958e-12 week: 149 ******** Week 149 almanac for PRN-13 ******** ID: 13 Health: 0 Eccentricity: 0.005804538727 Time of Applicability(s): 61440 Orbital Inclination(rad): 0.9689269804 Rate of Right Ascen(r/s): -7.577458489e-09 SQRT(A) (m 1/2): 5153.626953 Right Ascen at Week(rad): 0.3065047912 Argument of Perigee(rad): 0.9585552334 Mean Anom(rad): -0.9939375339 Af0(s): 0.0002065067627 Af1(s/s): 7.275958e-12 week: 149 ******** Week 149 almanac for PRN-14 ******** ID: 14 Health: 0 Eccentricity: 0.001434803009 Time of Applicability(s): 61440 Orbital Inclination(rad): 0.9536710621 Rate of Right Ascen(r/s): -7.771752296e-09 SQRT(A) (m 1/2): 5153.596191 Right Ascen at Week(rad): 2.30730522 Argument of Perigee(rad): 3.018528896 Mean Anom(rad): 2.337037708 Af0(s): -6.556966553e-05 Af1(s/s): -3.637979e-12 week: 149 ******** Week 149 almanac for PRN-15 ******** ID: 15 Health: 0 Eccentricity: 0.01393413544 Time of Applicability(s): 61440 Orbital Inclination(rad): 0.9303976974 Rate of Right Ascen(r/s): -7.897471818e-09 SQRT(A) (m 1/2): 5153.685547 Right Ascen at Week(rad): 0.04779496148 Argument of Perigee(rad): 1.074738174 Mean Anom(rad): -1.418879798 Af0(s): -6.632333984e-05 Af1(s/s): 3.637979e-12 week: 149 ******** Week 149 almanac for PRN-16 ******** ID: 16 Health: 0 Eccentricity: 0.01275634766 Time of Applicability(s): 61440 Orbital Inclination(rad): 0.9702512373 Rate of Right Ascen(r/s): -7.577458489e-09 SQRT(A) (m 1/2): 5153.556152 Right Ascen at Week(rad): 2.357184313 Argument of Perigee(rad): 0.7078909381 Mean Anom(rad): 0.4176775771 Af0(s): -0.0003708077637 Af1(s/s): -3.637979e-12 week: 149 ******** Week 149 almanac for PRN-17 ******** ID: 17 Health: 0 Eccentricity: 0.01361846924 Time of Applicability(s): 61440 Orbital Inclination(rad): 0.9801861597 Rate of Right Ascen(r/s): -7.623174678e-09 SQRT(A) (m 1/2): 5153.718262 Right Ascen at Week(rad): -2.907631748 Argument of Perigee(rad): -1.498825439 Mean Anom(rad): -0.5139678282 Af0(s): 0.0004544656128 Af1(s/s): 3.637979e-12 week: 149 ******** Week 149 almanac for PRN-18 ******** ID: 18 Health: 0 Eccentricity: 0.002093791962 Time of Applicability(s): 61440 Orbital Inclination(rad): 0.970448977 Rate of Right Ascen(r/s): -8.148910863e-09 SQRT(A) (m 1/2): 5153.569824 Right Ascen at Week(rad): -1.901968399 Argument of Perigee(rad): 3.108205728 Mean Anom(rad): -2.489668047 Af0(s): 0.000190679602 Af1(s/s): -7.275958e-12 week: 149 ******** Week 149 almanac for PRN-19 ******** ID: 19 Health: 0 Eccentricity: 0.008970737457 Time of Applicability(s): 61440 Orbital Inclination(rad): 0.978921824 Rate of Right Ascen(r/s): -7.668890868e-09 SQRT(A) (m 1/2): 5153.644043 Right Ascen at Week(rad): -2.862768053 Argument of Perigee(rad): 2.007688737 Mean Anom(rad): 1.896925661 Af0(s): 9.345561523e-05 Af1(s/s): 3.637979e-12 week: 149 ******** Week 149 almanac for PRN-20 ******** ID: 20 Health: 0 Eccentricity: 0.005164146423 Time of Applicability(s): 61440 Orbital Inclination(rad): 0.941674853 Rate of Right Ascen(r/s): -8.137481816e-09 SQRT(A) (m 1/2): 5153.695801 Right Ascen at Week(rad): -1.028670439 Argument of Perigee(rad): 3.131050282 Mean Anom(rad): -1.669948561 Af0(s): 0.0004084914795 Af1(s/s): 0 week: 149 ******** Week 149 almanac for PRN-21 ******** ID: 21 Health: 0 Eccentricity: 0.02460002899 Time of Applicability(s): 61440 Orbital Inclination(rad): 0.9592617031 Rate of Right Ascen(r/s): -8.160339911e-09 SQRT(A) (m 1/2): 5153.530273 Right Ascen at Week(rad): -2.000696316 Argument of Perigee(rad): -1.00628915 Mean Anom(rad): -0.3286096941 Af0(s): 0.0001251099365 Af1(s/s): 0 week: 149 ******** Week 149 almanac for PRN-22 ******** ID: 22 Health: 0 Eccentricity: 0.0128865242 Time of Applicability(s): 61440 Orbital Inclination(rad): 0.9616525559 Rate of Right Ascen(r/s): -7.657461821e-09 SQRT(A) (m 1/2): 5153.607422 Right Ascen at Week(rad): 0.254965883 Argument of Perigee(rad): -1.872875195 Mean Anom(rad): -0.6389003769 Af0(s): 0.0001680693726 Af1(s/s): 7.275958e-12 week: 149 ******** Week 149 almanac for PRN-23 ******** ID: 23 Health: 0 Eccentricity: 0.001972675323 Time of Applicability(s): 61440 Orbital Inclination(rad): 0.9674289523 Rate of Right Ascen(r/s): -7.828897533e-09 SQRT(A) (m 1/2): 5153.658203 Right Ascen at Week(rad): -0.9019177865 Argument of Perigee(rad): 2.959620813 Mean Anom(rad): 2.883741944 Af0(s): 1.507348633e-06 Af1(s/s): -3.637979e-12 week: 149 ******** Week 149 almanac for PRN-24 ******** ID: 24 Health: 0 Eccentricity: 0.01233482361 Time of Applicability(s): 61440 Orbital Inclination(rad): 0.9341667361 Rate of Right Ascen(r/s): -8.217485148e-09 SQRT(A) (m 1/2): 5153.626465 Right Ascen at Week(rad): 1.142795839 Argument of Perigee(rad): 0.8072139471 Mean Anom(rad): -2.391644952 Af0(s): 0.0002170582031 Af1(s/s): -3.637979e-12 week: 149 ******** Week 149 almanac for PRN-25 ******** ID: 25 Health: 0 Eccentricity: 0.01049947739 Time of Applicability(s): 61440 Orbital Inclination(rad): 0.957661809 Rate of Right Ascen(r/s): -7.783181343e-09 SQRT(A) (m 1/2): 5153.659668 Right Ascen at Week(rad): 2.26186778 Argument of Perigee(rad): 0.9809301558 Mean Anom(rad): 2.018651681 Af0(s): 0.0002253486206 Af1(s/s): 3.637979e-12 week: 149 ******** Week 149 almanac for PRN-26 ******** ID: 26 Health: 0 Eccentricity: 0.006874084473 Time of Applicability(s): 61440 Orbital Inclination(rad): 0.9384690728 Rate of Right Ascen(r/s): -7.943188008e-09 SQRT(A) (m 1/2): 5153.642578 Right Ascen at Week(rad): 2.214904974 Argument of Perigee(rad): 0.3693616764 Mean Anom(rad): 1.365893046 Af0(s): 0.0001447054687 Af1(s/s): 3.637979e-12 week: 149 ******** Week 149 almanac for PRN-27 ******** ID: 27 Health: 0 Eccentricity: 0.01021575928 Time of Applicability(s): 61440 Orbital Inclination(rad): 0.9737805915 Rate of Right Ascen(r/s): -7.668890868e-09 SQRT(A) (m 1/2): 5153.609863 Right Ascen at Week(rad): -2.970054205 Argument of Perigee(rad): 0.6378648649 Mean Anom(rad): -0.4667878073 Af0(s): 9.270194092e-05 Af1(s/s): 1.818989e-11 week: 149 ******** Week 149 almanac for PRN-29 ******** ID: 29 Health: 0 Eccentricity: 0.001830101013 Time of Applicability(s): 61440 Orbital Inclination(rad): 0.9821935174 Rate of Right Ascen(r/s): -7.611745631e-09 SQRT(A) (m 1/2): 5153.712891 Right Ascen at Week(rad): -2.894629238 Argument of Perigee(rad): 2.258798321 Mean Anom(rad): -0.3432532934 Af0(s): -0.0003790981811 Af1(s/s): -3.637979e-12 week: 149 ******** Week 149 almanac for PRN-30 ******** ID: 30 Health: 0 Eccentricity: 0.005506515503 Time of Applicability(s): 61440 Orbital Inclination(rad): 0.9358025828 Rate of Right Ascen(r/s): -8.194627053e-09 SQRT(A) (m 1/2): 5153.510254 Right Ascen at Week(rad): 1.238712332 Argument of Perigee(rad): -2.744623818 Mean Anom(rad): 2.960870543 Af0(s): -0.0004054767822 Af1(s/s): -3.637979e-12 week: 149 ******** Week 149 almanac for PRN-31 ******** ID: 31 Health: 0 Eccentricity: 0.01045417786 Time of Applicability(s): 61440 Orbital Inclination(rad): 0.9548575004 Rate of Right Ascen(r/s): -7.988904198e-09 SQRT(A) (m 1/2): 5153.623047 Right Ascen at Week(rad): 1.243640844 Argument of Perigee(rad): 0.3752122252 Mean Anom(rad): 2.472793509 Af0(s): -0.0001303856567 Af1(s/s): 0 week: 149 ******** Week 149 almanac for PRN-32 ******** ID: 32 Health: 0 Eccentricity: 0.00556230545 Time of Applicability(s): 61440 Orbital Inclination(rad): 0.9583808625 Rate of Right Ascen(r/s): -7.680319916e-09 SQRT(A) (m 1/2): 5153.726074 Right Ascen at Week(rad): 0.1649418835 Argument of Perigee(rad): -2.355233506 Mean Anom(rad): 0.180396665 Af0(s): -5.275720215e-05 Af1(s/s): -7.275958e-12 week: 149